Phuket, Thailand

10:29 PM +07 on July 26, 2017 (GMT +0700)
Phuket International

Weather History for VTSP - November, 2011

Change the Weather History Date:

Tuesday, November 1, 2011

  Actual Average Record
Temperature  
Mean Temperature 82 °F -  
Max Temperature 90 °F 88 °F 95 °F (1998)
Min Temperature 74 °F 75 °F 71 °F (1996)
Cooling Degree Days 17    
Growing Degree Days 32 (Base 50)    
Moisture  
Dew Point 74 °F    
Average Humidity 77    
Maximum Humidity 94    
Minimum Humidity 54    
Precipitation  
Precipitation 0.00 in 0.24 in - ()
Sea Level Pressure  
Sea Level Pressure 29.80 in    
Wind  
Wind Speed 3 mph ()    
Max Wind Speed 12 mph    
Max Gust Speed -    
Visibility 5.9 miles    
Events      
Averages and records for this station are not official NWS values.
T = Trace of Precipitation, MM = Missing Value Source: Averaged Metar Reports

Daily Weather History Graph

Daily Weather History Graph

Search for Another Location

Airport or City:

Trip Planner

Search our weather history database for the weather conditions in past years. The results will help you decide how hot, cold, wet, or windy it might be!

Date:

Astronomy

Nov. 01, 2011 Rise Set
Actual Time 6:15 AM +07 6:05 PM +07
Civil Twilight 5:53 AM +07 6:26 PM +07
Nautical Twilight 5:28 AM +07 6:51 PM +07
Astronomical Twilight 5:03 AM +07 7:16 PM +07
Moon 11:23 AM +07 (11/1) 11:26 PM +07 (11/1)
Length of Visible Light 12h 33m
Length of Day
11h 50m
Waxing Crescent, 35% of the Moon is Illuminated
Nov 1
Waxing Crescent
Nov 2
First Quarter
Nov 11
Full
Nov 18
Last Quarter
Nov 25
New

Hourly Weather History & Observations

Time (+07) Temp. Heat Index Dew Point Humidity Pressure Visibility Wind Dir Wind Speed Gust Speed Precip Events Conditions
12:00 AM 77.0 °F - 73.4 °F 89% 29.86 in 5.6 mi Calm Calm - N/A   Mostly Cloudy
12:30 AM 77.0 °F - 73.4 °F 89% 29.86 in 5.6 mi Calm Calm - N/A   Mostly Cloudy
1:00 AM 77 °F - 75 °F 93% 29.81 in 6 mi Calm Calm - -   Scattered Clouds
1:00 AM 77.0 °F - 73.4 °F 89% 29.83 in 5.6 mi Calm Calm - N/A   Mostly Cloudy
1:30 AM 77.0 °F - 73.4 °F 89% 29.83 in 5.6 mi Calm Calm - N/A   Mostly Cloudy
2:00 AM 75.2 °F - 73.4 °F 94% 29.80 in 5.6 mi Calm Calm - N/A   Mostly Cloudy
2:30 AM 77.0 °F - 73.4 °F 89% 29.80 in 5.6 mi Calm Calm - N/A   Mostly Cloudy
3:00 AM 77.0 °F - 73.4 °F 89% 29.80 in 5.6 mi ENE 3.5 mph - N/A   Mostly Cloudy
3:30 AM 77.0 °F - 73.4 °F 89% 29.80 in 5.6 mi Calm Calm - N/A   Mostly Cloudy
4:00 AM 77.0 °F - 73.4 °F 89% 29.80 in 5.6 mi Calm Calm - N/A   Mostly Cloudy
4:30 AM 77.0 °F - 73.4 °F 89% 29.80 in 5.6 mi Calm Calm - N/A   Mostly Cloudy
5:00 AM 78.8 °F - 73.4 °F 83% 29.80 in 5.6 mi ENE 3.5 mph - N/A   Mostly Cloudy
5:30 AM 78.8 °F - 71.6 °F 78% 29.80 in 5.6 mi NNE 3.5 mph - N/A   Mostly Cloudy
6:00 AM 77.0 °F - 73.4 °F 89% 29.80 in 5.6 mi Variable 2.3 mph - N/A   Mostly Cloudy
6:30 AM 75.2 °F - 73.4 °F 94% 29.80 in 5.6 mi Calm Calm - N/A   Mostly Cloudy
7:00 AM 76 °F - 74 °F 91% 29.78 in 6 mi Calm Calm - -   Scattered Clouds
7:00 AM 75.2 °F - 73.4 °F 94% 29.83 in 5.6 mi Calm Calm - N/A   Mostly Cloudy
7:30 AM 77.0 °F - 73.4 °F 89% 29.83 in 5.6 mi Calm Calm - N/A   Mostly Cloudy
8:00 AM 78.8 °F - 75.2 °F 89% 29.83 in 5.6 mi Calm Calm - N/A   Mostly Cloudy
8:30 AM 82.4 °F 88.2 °F 73.4 °F 74% 29.86 in 6.2 mi Calm Calm - N/A   Mostly Cloudy
9:00 AM 82.4 °F 88.2 °F 73.4 °F 74% 29.86 in 6.2 mi ENE 4.6 mph - N/A   Mostly Cloudy
9:30 AM 84.2 °F 92.3 °F 75.2 °F 74% 29.86 in 6.2 mi East 6.9 mph - N/A   Mostly Cloudy
10:00 AM 84.2 °F 92.3 °F 75.2 °F 74% 29.86 in 6.2 mi ENE 4.6 mph - N/A   Mostly Cloudy
10:30 AM 87.8 °F 97.6 °F 75.2 °F 66% 29.86 in 6.2 mi NE 5.8 mph - N/A   Mostly Cloudy
11:00 AM 89.6 °F 99.8 °F 75.2 °F 62% 29.83 in 6.2 mi NNE 4.6 mph - N/A   Mostly Cloudy
11:30 AM 89.6 °F 98.2 °F 73.4 °F 59% 29.83 in 6.2 mi ENE 8.1 mph - N/A   Mostly Cloudy
12:00 PM 87.8 °F 95.6 °F 73.4 °F 62% 29.80 in 6.2 mi East 10.4 mph - N/A   Mostly Cloudy
12:30 PM 89.6 °F 98.2 °F 73.4 °F 59% 29.80 in 6.2 mi East 6.9 mph - N/A   Mostly Cloudy
1:00 PM 89 °F - 74 °F 54% 29.82 in 6 mi ENE 10.4 mph - -   Scattered Clouds
1:00 PM 89.6 °F 98.2 °F 73.4 °F 59% 29.77 in 6.2 mi ENE 10.4 mph - N/A   Mostly Cloudy
1:30 PM 89.6 °F 98.2 °F 73.4 °F 59% 29.77 in 6.2 mi NNE 5.8 mph - N/A   Mostly Cloudy
2:00 PM 91.4 °F 102.5 °F 75.2 °F 59% 29.77 in 6.2 mi NE 8.1 mph - N/A   Mostly Cloudy
2:30 PM 87.8 °F 99.7 °F 77.0 °F 70% 29.74 in 6.2 mi West 9.2 mph - N/A   Mostly Cloudy
3:00 PM 87.8 °F 95.6 °F 73.4 °F 62% 29.74 in 6.2 mi West 10.4 mph - N/A   Mostly Cloudy
3:30 PM 87.8 °F 95.6 °F 73.4 °F 62% 29.71 in 6.2 mi West 11.5 mph - N/A   Mostly Cloudy
4:00 PM 87.8 °F 95.6 °F 73.4 °F 62% 29.71 in 6.2 mi WNW 10.4 mph - N/A   Mostly Cloudy
4:30 PM 86.0 °F 93.4 °F 73.4 °F 66% 29.71 in 6.2 mi WNW 10.4 mph - N/A   Mostly Cloudy
5:00 PM 84.2 °F 90.9 °F 73.4 °F 70% 29.71 in 6.2 mi WNW 11.5 mph - N/A   Mostly Cloudy
5:30 PM 84.2 °F 90.9 °F 73.4 °F 70% 29.71 in 6.2 mi WNW 11.5 mph - N/A   Mostly Cloudy
6:00 PM 84.2 °F 92.3 °F 75.2 °F 74% 29.74 in 6.2 mi WNW 11.5 mph - N/A   Mostly Cloudy
6:30 PM 82.4 °F 89.5 °F 75.2 °F 79% 29.74 in 5.6 mi WNW 6.9 mph - N/A   Mostly Cloudy
7:00 PM 85 °F - 77 °F 70% 29.72 in 6 mi WNW 6.9 mph - -   Scattered Clouds
7:00 PM 82.4 °F 88.2 °F 73.4 °F 74% 29.77 in 5.6 mi WNW 6.9 mph - N/A   Mostly Cloudy
7:30 PM 82.4 °F 89.5 °F 75.2 °F 79% 29.77 in 5.6 mi WNW 8.1 mph - N/A   Mostly Cloudy
8:00 PM 82.4 °F 89.5 °F 75.2 °F 79% 29.80 in 5.6 mi NNW 4.6 mph - N/A   Mostly Cloudy
8:30 PM 82.4 °F 89.5 °F 75.2 °F 79% 29.80 in 6.2 mi NNW 5.8 mph - N/A   Mostly Cloudy
9:00 PM 82.4 °F 88.2 °F 73.4 °F 74% 29.80 in 6.2 mi Calm Calm - N/A   Mostly Cloudy
9:30 PM 80.6 °F 85.4 °F 73.4 °F 79% 29.83 in 6.2 mi Calm Calm - N/A   Mostly Cloudy
10:00 PM 82.4 °F 88.2 °F 73.4 °F 74% 29.83 in 6.2 mi ENE 3.5 mph - N/A   Mostly Cloudy
10:30 PM 80.6 °F 85.4 °F 73.4 °F 79% 29.83 in 6.2 mi Calm Calm - N/A   Mostly Cloudy
11:00 PM 78.8 °F - 73.4 °F 83% 29.80 in 6.2 mi ENE 5.8 mph - N/A   Mostly Cloudy
11:30 PM 80.6 °F 85.4 °F 73.4 °F 79% 29.80 in 6.2 mi ENE 4.6 mph - N/A   Mostly Cloudy